Flag for Germany Weather past 2 weeks in Gütersloh, North Rhine-Westphalia, Germany

Now
38 °F

Low clouds.


Feels Like: 35 °F
Forecast: 31 / 37 °F
Wind: 3 mph from Southwest

Location: Bad Lippspringe

Current Time: Jan 28, 2015 at 3:24:17 AM

Latest Report: Jan 28, 2015 at 3:00 AM


Visibility: N/A

Pressure: 30.10 "Hg

Humidity: 97%

Dew point: 37 °F

Location of GüterslohLocation

Historic Weather in Gütersloh — Graph

°F

Gütersloh temperature yesterday

Maximum temperature yesterday: 40 °F (at 4:00 PM)
Minimum temperature yesterday: 35 °F (at 7:00 AM)
Average temperature yesterday: 37 °F

Past Weeks' High & Low Weather Summary

 TemperatureHumidityPressure
High53 °F (Jan 13, 1:00 PM)100% (Jan 24, 7:00 PM)30.39 "Hg (Jan 24, 7:00 PM)
Low25 °F (Jan 24, 4:00 AM)58% (Jan 13, 1:00 PM)29.47 "Hg (Jan 15, 4:00 PM)
Average36 °F85%29.98 "Hg
* Reported Jan 13 2:00 AM — Jan 28 2:00 AM, Gütersloh, Weather by CustomWeather, © 2014

Note: Actual official high and low records may vary slightly from our data, if they occured in-between our weather recording intervals... More about our weather records

Advertising

Gütersloh weather history for previous 24 hours

 ConditionsComfort  
Time TempWeatherWind HumidityBarometerVisibility
2:00 AM
Jan 28
38 °FLow clouds.5 mph97%30.11 "HgN/A
1:00 AM38 °FLow clouds.3 mph98%30.12 "HgN/A
12:00 AM38 °FLow clouds.3 mph97%30.14 "HgN/A
11:00 PM
Jan 27
38 °FLight freezing rain. Low clouds.3 mph98%30.14 "Hg3 mi
10:00 PM37 °FLow clouds.1 mph97%30.15 "HgN/A
9:00 PM37 °FLow clouds.2 mph97%30.16 "Hg13 mi
8:00 PM36 °FOvercast.1 mph98%30.16 "HgN/A
7:00 PM36 °FLow clouds.1 mph97%30.16 "Hg17 mi
6:00 PM35 °FLow clouds.1 mph97%30.15 "HgN/A
5:00 PM36 °FDrizzle. Overcast.2 mph95%30.14 "Hg25 mi
4:00 PM40 °FOvercast.5 mph88%30.12 "Hg18 mi
3:00 PM40 °FOvercast.3 mph92%30.12 "Hg14 mi
2:00 PM39 °FLow clouds.5 mph92%30.12 "Hg12 mi
1:00 PM37 °FLow clouds.5 mph95%30.14 "Hg12 mi
12:00 PM37 °FLight rain. Low clouds.5 mph95%30.14 "Hg3 mi
11:00 AM37 °FLow clouds.5 mph95%30.14 "Hg11 mi
10:00 AM36 °FRain. Low clouds.5 mph94%30.13 "Hg2 mi
9:00 AM36 °FLow clouds.5 mph93%30.13 "Hg13 mi
8:00 AM36 °FLow clouds.3 mph95%30.11 "Hg11 mi
7:00 AM35 °FLow clouds.5 mph96%30.10 "Hg11 mi
6:00 AM36 °FLow clouds.6 mph92%30.10 "Hg18 mi
5:00 AM36 °FLow clouds.5 mph93%30.09 "Hg17 mi
4:00 AM36 °FLow clouds.6 mph93%30.08 "Hg18 mi
3:00 AM37 °FDrizzle. Low clouds.5 mph94%30.07 "Hg12 mi
Weather by CustomWeather, © 2014

See weather overviewHow to use our weather pages